sat.trackr.live / text

‹ back to catalog

KUIPER-00410

NORAD 68926 · 2026-098H

PAYLOAD ACTIVE UNKNOWN

§ Identity

Operator
Country
US
Launch date
2026-04-30
Launch site
FRGUI
Launch vehicle
Mass (kg)
RCS (m²)

External: N2YO · Heavens-Above · Gunter

§ Orbital elements

Epoch: 2026-05-25T02:06:37.985760Z

Period
94.08 min
Inclination
51.8746°
Eccentricity
0.0014072
Mean motion
15.30610042 rev/d
Perigee alt
464.3 km
Apogee alt
483.6 km
Semi-major
6,852.1 km
B*
-1.8973e-4
RAAN
179.4293°
Arg perigee
62.6154°
Mean anomaly
297.6260°
Rev number
379

§ Raw data

KUIPER-004101 68926U 26098H   26145.08793965 -.00006081  00000+0 -18973-3 0  99982 68926  51.8746 179.4293 0014072  62.6154 297.6260 15.30610042  3790

JSON: /api/v1/satellites/68926 · /tle

For live sub-satellite position, see the globe view (requires WebGL).

§ Visibility from observer

Set your observer location to see the next 7 days of passes ≥ 10°. The values pass through the URL so the page stays shareable.

No JS? Fill the form by hand. The geolocation button needs JavaScript.